Wind_Speed
4 5 13 14 9 5 1 4 7 3 5 1 6 14 7 7 10 9 13 12 12 14 16 26 34 37 35 39 40 43 40 46 41 42 38 37 41 41 42 43 42 43 41 41
4 16 7 5 6 7 7 10 15 3 4 2 5 18 15 8 14 18 17 16 16 14 12 21 28 35 35 37 42 42 42 44 46 38 43 40 38 36 40 40 43 45 44 44
12 4 12 8 5 11 8 15 9 8 2 4 3 15 17 10 9 12 11 14 15 16 19 19 22 27 33 35 40 43 43 41 44 42 33 31 28 29 29 36 44 49 47 48
9 6 9 6 10 8 10 7 8 6 4 5 5 7 11 10 15 16 17 13 14 16 16 16 18 22 28 39 41 43 44 43 43 41 34 35 36 32 38 36 36 38 48 51
9 11 10 9 9 9 10 7 7 6 6 3 10 5 7 2 14 16 15 11 14 12 13 14 15 25 33 35 37 41 42 42 43 39 42 39 37 36 30 31 32 38 39 48
10 3 8 11 7 9 4 3 0 0 3 9 19 8 12 10 13 7 6 9 11 11 15 12 21 27 29 33 36 37 37 40 40 40 44 42 41 38 31 32 33 35 37 38
7 7 2 4 5 4 5 4 4 3 6 8 2 7 14 11 13 14 15 16 17 11 14 14 13 16 26 26 31 34 34 34 37 40 42 44 43 40 40 37 35 32 33 35
12 7 14 6 8 6 9 12 8 6 5 6 2 6 6 13 18 8 12 9 10 15 13 13 11 16 20 21 22 27 29 32 33 37 41 43 44 40 40 39 37 35 36 39
8 7 4 5 5 10 6 8 13 4 2 2 4 7 10 17 19 17 8 6 8 12 12 12 12 18 14 13 10 7 16 26 30 33 34 36 37 39 38 38 38 40 38 37
5 1 6 9 5 9 11 7 2 2 4 6 5 5 8 8 3 6 8 9 10 9 10 11 11 20 25 20 13 9 10 15 20 30 33 34 36 37 39 38 38 38 37 35
4 4 1 7 11 15 4 8 5 5 5 4 3 6 10 17 5 4 5 7 8 9 9 10 10 22 23 25 23 21 16 17 18 17 23 31 33 34 36 38 41 39 38 38
8 4 4 8 1 7 16 17 14 9 7 4 4 13 8 3 2 3 7 6 8 7 8 12 17 22 25 27 30 29 33 36 39 36 26 22 25 34 35 36 38 39 40 39
13 5 2 7 4 1 6 10 10 12 3 16 7 13 6 4 7 7 7 6 8 11 15 15 17 19 24 26 28 30 32 32 36 38 35 35 30 28 31 36 37 38 39 40
17 5 10 12 7 4 6 7 13 13 6 13 14 22 26 10 8 7 9 13 11 11 12 14 16 20 22 26 27 28 31 32 34 36 34 31 31 34 35 34 35 36 37 38
10 7 5 3 4 3 4 6 10 14 19 8 6 15 20 2 4 7 8 10 12 13 13 13 14 15 25 27 30 32 31 32 35 34 33 33 34 35 34 36 35 35 37 37
5 3 4 3 4 4 6 7 7 5 4 7 7 25 6 7 7 8 9 11 12 13 14 16 16 20 23 29 33 35 32 36 36 33 34 35 35 35 34 34 37 36 35 36
11 6 3 4 1 3 9 8 10 6 7 8 13 17 4 5 7 5 8 10 11 12 14 16 17 21 26 30 31 33 34 36 34 33 34 33 35 34 36 37 34 35 36 35
7 8 2 3 3 6 4 2 5 13 12 6 4 7 7 3 5 8 7 9 11 13 14 14 22 27 31 33 31 32 33 33 30 32 30 33 37 37 37 36 35 34 34 34
6 6 3 5 4 4 5 5 6 7 7 2 2 6 5 10 4 5 7 12 11 12 17 20 23 27 30 30 35 33 35 30 31 29 32 35 35 38 38 37 34 33 34 32
5 8 6 3 5 9 6 6 4 3 5 4 5 5 4 6 1 1 14 16 14 19 22 24 28 28 27 28 29 33 31 33 30 32 37 35 36 35 36 37 37 35 34 36
7 3 14 3 4 7 6 1 3 5 2 6 4 3 2 0 2 9 14 14 18 21 21 26 25 25 26 30 31 30 30 30 35 39 37 37 36 37 36 36 35 34 34 32
8 8 4 3 2 12 4 0 7 4 5 6 3 2 3 5 9 11 12 15 19 21 25 27 26 25 29 28 31 30 29 33 37 37 38 39 38 37 36 35 33 29 27 27
4 6 6 8 4 4 5 8 6 4 5 3 1 3 5 8 8 10 10 12 17 22 25 25 25 27 27 28 30 32 35 38 38 38 38 39 38 35 33 33 33 30 25 23
2 3 4 5 4 7 9 8 8 7 5 2 2 4 4 6 9 10 10 12 17 20 23 26 26 25 26 30 32 31 34 37 36 38 37 36 36 35 31 31 30 28 26 25
2 4 6 4 5 7 4 5 6 5 3 1 3 4 6 7 9 10 10 12 16 18 21 22 22 24 26 28 33 35 34 35 37 36 35 34 31 32 32 29 28 28 28 27
1 4 4 3 10 4 5 9 5 4 2 3 5 6 7 8 9 12 11 14 15 17 19 21 22 22 25 28 31 35 38 36 35 34 33 33 33 31 30 29 32 28 29 31
Wind_Direction
204 201 214 212 224 223 206 214 240 174 209 205 260 285 284 293 293 277 273 278 272 265 261 272 276 274 252 240 234 228 220 223 217 208 215 218 221 224 228 230 232 230 230 229
174 228 193 182 222 218 235 254 257 250 243 239 286 282 285 276 280 274 274 273 269 272 274 266 263 268 259 239 235 229 221 220 216 215 210 220 220 222 227 230 231 233 232 231
212 224 172 182 188 216 226 231 250 252 241 254 252 277 279 275 248 269 264 257 265 266 270 268 261 249 254 241 233 230 227 220 219 215 213 217 223 223 222 225 230 232 233 234
227 205 173 187 228 185 232 193 229 230 226 251 153 284 280 282 270 262 271 260 260 265 263 261 264 260 248 248 244 233 229 223 221 214 210 204 215 216 221 224 228 228 232 233
213 172 182 192 219 173 242 162 204 202 217 262 235 243 284 289 284 270 267 248 253 260 268 268 263 259 258 251 242 235 227 223 220 213 211 212 214 226 226 223 225 227 228 232
233 187 177 213 197 183 128 135 70 224 203 244 248 214 265 259 253 285 275 267 270 272 283 277 276 277 270 256 248 238 226 221 220 215 213 213 217 219 220 221 222 225 225 228
191 218 248 169 156 160 175 141 264 267 229 247 166 182 236 268 268 259 281 287 289 298 279 275 282 288 276 262 249 241 231 222 218 215 216 217 221 221 221 220 222 223 223 223
205 217 198 192 192 178 198 194 212 208 231 252 127 217 251 239 262 268 274 315 310 302 299 290 289 279 294 296 274 257 243 233 222 217 219 222 224 224 227 228 227 227 226 226
180 239 195 199 157 154 193 199 221 289 167 266 227 284 291 279 278 284 316 339 336 341 342 341 338 346 347 336 312 303 272 254 243 230 227 228 228 228 230 232 231 230 230 231
201 226 204 195 148 229 195 149 163 253 205 240 232 256 245 277 259 354 14 357 331 341 350 348 357 359 356 352 342 335 314 278 258 248 238 234 235 234 235 237 236 235 235 232
197 158 198 119 208 193 177 212 204 158 156 197 247 247 222 260 207 334 325 319 314 324 339 332 331 339 338 338 342 329 326 318 304 288 267 249 243 244 240 237 238 238 236 231
185 151 196 207 270 199 212 221 212 219 223 237 257 263 236 195 325 45 327 315 280 295 321 333 339 351 5 7 2 354 350 340 330 323 313 294 269 258 248 246 243 240 238 235
177 199 66 333 332 205 200 215 201 215 85 238 231 260 105 295 334 318 314 315 326 359 20 14 5 6 6 3 358 354 348 345 344 338 332 320 305 284 267 257 251 245 240 237
167 161 199 218 212 162 200 187 203 198 207 245 230 268 267 288 299 314 316 323 42 34 23 7 3 352 354 353 348 346 345 346 345 341 331 321 311 298 283 274 261 254 246 240
165 201 178 184 170 186 201 187 187 204 224 204 232 245 268 23 321 316 31 28 27 16 10 5 353 349 346 345 344 342 341 343 340 337 332 323 321 313 300 287 278 265 254 245
176 180 120 243 253 206 243 218 212 207 224 252 255 259 21 67 83 48 45 23 16 4 356 351 346 344 343 343 337 335 335 338 336 333 329 327 327 324 313 299 288 279 266 256
166 125 110 236 172 76 281 217 199 199 197 202 232 265 49 45 60 66 51 33 8 353 347 342 340 336 335 334 332 331 330 328 329 329 327 330 333 329 323 316 304 292 281 269
143 143 138 154 74 221 242 258 214 212 231 222 352 55 55 345 304 133 75 30 2 348 340 336 331 331 330 329 329 327 329 328 327 324 326 328 329 326 322 315 309 303 293 279
136 143 147 169 201 312 282 235 170 172 224 67 120 66 30 321 319 185 63 21 352 339 330 326 324 325 323 324 328 328 326 326 324 324 324 325 325 320 318 312 308 304 297 285
123 177 180 141 200 213 225 171 33 99 249 100 84 77 33 325 161 204 351 347 333 329 326 326 326 323 322 325 327 323 323 323 321 323 320 319 319 316 309 307 305 301 293 285
165 128 209 170 209 284 262 341 312 128 230 126 104 89 54 315 271 317 318 318 320 320 328 325 325 323 327 330 329 323 321 317 320 318 317 317 317 313 309 304 304 301 293 285
162 162 184 116 174 251 14 208 192 117 102 115 96 48 313 304 305 313 319 320 328 335 334 336 332 330 331 333 331 324 319 321 319 319 317 315 312 312 310 307 308 304 295 287
187 180 176 184 202 56 29 94 89 62 105 91 49 1 338 318 321 321 327 331 336 335 334 334 332 329 333 333 334 325 324 324 322 319 316 312 311 310 309 309 310 307 303 290
216 171 143 138 145 129 113 94 92 82 93 79 350 326 341 328 326 339 336 337 337 336 335 333 332 333 333 334 331 326 325 325 323 318 315 312 310 310 309 311 309 306 304 300
206 120 130 83 99 105 120 120 130 123 105 56 3 352 351 345 346 345 333 336 337 335 336 335 332 331 333 336 332 331 331 330 325 320 316 314 312 311 308 307 304 297 290 283
249 166 168 197 154 119 123 139 128 127 100 36 4 356 3 2 348 341 328 334 333 332 333 337 332 332 334 337 334 335 335 334 329 323 320 318 317 317 316 312 310 306 296 294
Height
834 834 830 830 835 834 837 841 844 838 835 836 838 828 828 825 821 819 811 807 802 798 793 791 789 788 788 788 789 789 791 791 795 794 803 805 804 807 809 810 813 815 818 820
835 826 830 829 833 835 836 838 837 839 834 835 836 827 819 821 814 809 805 800 795 791 788 784 782 781 779 780 779 782 782 783 783 790 785 796 797 799 802 804 806 807 810 813
826 820 822 828 834 837 837 836 835 839 835 835 837 828 815 806 806 801 796 792 789 786 780 774 771 770 771 770 770 772 775 777 778 779 786 790 795 796 795 794 795 796 801 804
827 819 821 827 830 832 837 832 834 839 841 841 834 833 814 808 802 796 788 787 782 776 771 766 763 763 762 759 760 761 764 767 770 773 778 776 782 781 779 782 787 790 792 794
815 820 823 826 821 827 826 828 832 835 841 841 834 837 813 805 802 794 782 782 775 771 766 761 758 754 752 752 752 751 754 757 761 764 765 768 769 773 776 777 778 781 783 785
813 813 816 813 818 822 824 829 832 836 842 834 816 832 814 804 792 783 779 775 770 767 761 756 751 749 745 744 743 744 746 748 752 756 756 757 758 763 767 768 769 771 773 776
815 815 811 809 820 823 824 833 844 853 835 826 817 828 805 787 785 783 778 773 767 767 761 752 745 744 741 737 737 738 739 740 743 746 748 750 751 753 754 756 758 762 764 766
806 813 810 807 808 818 823 825 828 840 833 823 822 820 801 784 774 775 772 775 772 764 756 749 745 743 738 736 736 735 736 735 737 738 740 740 743 744 745 748 749 751 752 752
812 809 797 799 802 805 819 821 810 832 844 840 819 807 790 777 773 769 779 774 771 765 760 755 748 745 738 736 734 731 733 735 735 735 735 735 736 737 737 739 741 739 740 745
797 805 794 796 798 799 799 807 824 843 837 831 814 816 801 783 778 779 783 778 771 766 762 759 751 746 742 739 737 734 735 735 731 731 730 728 729 729 730 732 732 733 733 737
791 794 795 799 795 791 804 804 804 812 828 839 827 803 778 769 775 778 779 775 772 769 765 760 753 748 745 743 742 740 735 734 731 727 727 724 723 724 724 723 723 724 725 726
787 795 805 797 786 786 786 788 794 803 821 821 807 789 764 769 775 776 775 772 772 771 767 760 757 753 750 748 747 745 741 736 731 727 724 722 719 719 718 716 715 715 715 717
775 792 835 810 795 788 790 787 787 791 807 797 805 781 771 773 776 775 773 770 768 768 768 770 767 763 760 756 753 748 746 739 732 727 722 717 713 711 709 708 706 705 704 706
762 782 777 779 775 780 786 786 783 787 804 786 792 778 755 774 776 775 773 768 777 781 782 780 773 772 767 763 759 753 747 744 736 729 722 716 711 708 704 700 699 698 697 696
764 785 780 776 777 776 776 781 785 784 776 790 779 781 751 773 776 775 782 783 783 784 783 783 780 773 770 765 760 754 748 743 739 729 722 714 707 703 699 696 691 690 689 687
764 791 782 796 782 783 783 783 782 785 785 789 789 771 771 784 788 790 792 790 790 789 787 786 782 778 773 766 760 754 748 740 736 730 723 716 707 701 697 692 688 683 681 679
762 780 802 803 789 787 792 775 780 779 777 775 777 758 782 790 790 795 799 799 798 795 793 789 786 781 776 771 765 756 750 745 736 730 723 716 708 700 693 689 684 680 675 672
768 770 787 802 807 792 763 763 762 762 760 768 772 790 797 799 797 799 802 803 801 799 797 793 787 780 775 770 763 757 752 744 737 731 724 717 707 699 693 686 679 673 669 666
749 765 782 790 821 791 767 759 763 764 766 793 789 799 803 801 793 799 800 803 803 801 799 795 791 785 777 770 762 755 748 744 738 730 723 716 708 699 691 683 674 668 664 659
752 750 767 809 779 790 764 752 758 755 771 797 798 805 809 803 790 788 799 802 803 803 799 792 788 784 778 772 766 757 748 741 734 728 720 713 706 699 690 681 671 662 658 652
754 769 757 806 817 797 763 760 767 784 772 799 803 807 810 807 807 807 807 805 804 801 796 792 787 781 775 769 762 755 749 740 731 724 715 707 700 692 685 676 667 658 651 644
744 757 766 798 785 764 779 763 757 782 796 799 805 810 811 811 811 810 808 804 799 796 792 789 784 779 775 769 762 754 747 739 731 721 711 702 694 686 677 669 658 651 645 637
742 743 759 759 759 783 785 786 792 792 794 802 807 810 812 812 811 809 805 802 798 795 792 788 784 778 774 769 762 751 743 736 727 717 708 698 689 680 672 663 653 647 641 634
740 743 750 761 782 788 792 795 797 799 801 805 808 809 811 811 808 804 803 801 799 796 792 787 781 776 771 766 761 754 744 735 726 716 705 695 685 674 666 659 652 643 637 630
750 745 762 781 787 791 795 797 799 802 804 806 807 808 808 808 805 804 803 801 798 795 791 788 782 776 770 765 758 751 743 735 725 715 703 693 684 674 662 655 649 642 636 630
769 750 741 745 764 771 783 796 800 803 806 807 807 807 807 807 806 807 806 802 798 794 790 786 781 775 768 762 756 749 742 735 726 715 703 692 682 671 660 649 638 634 628 621